When you browse on this site, cookies collect data to enhance your experience and personalize the content and advertising you see.
Visit our Privacy Policy to learn more. By continuing to use the site, you agree to this use of cookies and data.
  • In Portugal
  • List of Countries
  • For 7 days
  • Water Temperature
  • Satellite Maps
  • Weather Map
  • Weather Widgets
  • user-avatar
    Login

    Hourly Weather Perth

    Today, 24 May, Friday

    Time Temperature Precipitation Wind Pressure Humidity
    00:00 +15°C° 0 mm 1 mps 766 mmHg 80%
    01:00 +15°C° 0 mm 1 mps 766 mmHg 82%
    02:00 +14°C° 0 mm 1 mps 766 mmHg 83%
    03:00 +14°C° 0 mm 1 mps 766 mmHg 84%
    04:00 +14°C° 0 mm 1 mps 766 mmHg 85%
    05:00 +14°C° 0 mm 1 mps 766 mmHg 85%
    06:00 +14°C° 0 mm 1 mps 766 mmHg 85%
    07:00 +14°C° 0 mm 1 mps 766 mmHg 85%
    08:00 +15°C° 0 mm 1 mps 766 mmHg 82%
    09:00 +17°C° 0 mm 2 mps 766 mmHg 74%
    10:00 +18°C° 0 mm 2 mps 766 mmHg 66%
    11:00 +20°C° 0 mm 2 mps 766 mmHg 58%
    12:00 +21°C° 0 mm 2 mps 766 mmHg 56%
    13:00 +21°C° 0 mm 3 mps 766 mmHg 54%
    14:00 +22°C° 0 mm 3 mps 765 mmHg 52%
    15:00 +21°C° 0 mm 3 mps 765 mmHg 57%
    16:00 +20°C° 0 mm 3 mps 765 mmHg 61%
    17:00 +19°C° 0 mm 3 mps 765 mmHg 65%
    18:00 +18°C° 0 mm 3 mps 766 mmHg 70%
    19:00 +17°C° 0 mm 3 mps 766 mmHg 75%
    20:00 +16°C° 0 mm 2 mps 766 mmHg 79%
    21:00 +16°C° 0 mm 2 mps 766 mmHg 81%
    22:00 +16°C° 0 mm 2 mps 767 mmHg 82%
    23:00 +15°C° 0 mm 2 mps 767 mmHg 83%

    Tomorrow, 25 May, Saturday

    Time Temperature Precipitation Wind Pressure Humidity
    00:00 +15°C° 0 mm 2 mps 767 mmHg 83%
    01:00 +15°C° 0 mm 2 mps 767 mmHg 84%
    02:00 +13°C° 0 mm 3 mps 767 mmHg 84%
    03:00 +13°C° 0 mm 3 mps 767 mmHg 84%
    04:00 +13°C° 0 mm 3 mps 766 mmHg 83%
    05:00 +13°C° 0 mm 3 mps 766 mmHg 83%
    06:00 +13°C° 0 mm 3 mps 767 mmHg 82%
    07:00 +13°C° 0 mm 3 mps 767 mmHg 82%
    08:00 +13°C° 0 mm 3 mps 767 mmHg 81%
    09:00 +14°C° 0 mm 3 mps 767 mmHg 72%
    10:00 +17°C° 0 mm 3 mps 767 mmHg 63%
    11:00 +19°C° 0 mm 3 mps 767 mmHg 54%
    12:00 +20°C° 0 mm 2 mps 767 mmHg 50%
    13:00 +21°C° 0 mm 2 mps 766 mmHg 46%
    14:00 +23°C° 0 mm 2 mps 765 mmHg 42%
    15:00 +21°C° 0 mm 2 mps 765 mmHg 45%
    16:00 +21°C° 0 mm 2 mps 765 mmHg 48%
    17:00 +20°C° 0 mm 2 mps 765 mmHg 51%
    18:00 +19°C° 0 mm 2 mps 766 mmHg 55%
    19:00 +18°C° 0 mm 2 mps 766 mmHg 59%
    20:00 +16°C° 0 mm 3 mps 767 mmHg 62%
    21:00 +16°C° 0 mm 3 mps 767 mmHg 62%
    22:00 +14°C° 0 mm 3 mps 767 mmHg 61%
    23:00 +14°C° 0 mm 3 mps 767 mmHg 61%

    Day after tomorrow, 26 May, Sunday

    Time Temperature Precipitation Wind Pressure Humidity
    00:00 +14°C° 0 mm 3 mps 767 mmHg 62%
    01:00 +14°C° 0 mm 4 mps 767 mmHg 64%
    02:00 +13°C° 0 mm 4 mps 767 mmHg 65%
    03:00 +13°C° 0 mm 4 mps 767 mmHg 67%
    04:00 +13°C° 0 mm 4 mps 767 mmHg 70%
    05:00 +13°C° 0 mm 5 mps 766 mmHg 72%
    06:00 +13°C° 0 mm 5 mps 767 mmHg 72%
    07:00 +13°C° 0 mm 5 mps 767 mmHg 73%
    08:00 +13°C° 0 mm 5 mps 767 mmHg 73%
    09:00 +15°C° 0 mm 5 mps 767 mmHg 66%
    10:00 +17°C° 0 mm 5 mps 767 mmHg 58%
    11:00 +20°C° 0 mm 5 mps 767 mmHg 51%
    12:00 +21°C° 0 mm 4 mps 767 mmHg 47%
    13:00 +22°C° 0 mm 4 mps 766 mmHg 44%
    14:00 +22°C° 0 mm 4 mps 765 mmHg 41%
    15:00 +22°C° 0 mm 4 mps 765 mmHg 44%
    16:00 +21°C° 0 mm 3 mps 765 mmHg 46%
    17:00 +20°C° 0 mm 3 mps 765 mmHg 48%
    18:00 +19°C° 0 mm 4 mps 766 mmHg 50%
    19:00 +18°C° 0 mm 4 mps 766 mmHg 52%
    20:00 +16°C° 0 mm 5 mps 767 mmHg 54%
    21:00 +16°C° 0 mm 5 mps 767 mmHg 55%
    22:00 +15°C° 0 mm 6 mps 767 mmHg 57%
    23:00 +15°C° 0 mm 6 mps 767 mmHg 59%

    27 May, Monday

    Time Temperature Precipitation Wind Pressure Humidity
    00:00 +14°C° 0 mm 6 mps 767 mmHg 59%
    01:00 +14°C° 0 mm 6 mps 767 mmHg 60%
    02:00 +14°C° 0 mm 6 mps 766 mmHg 61%
    03:00 +14°C° 0 mm 6 mps 766 mmHg 62%
    04:00 +13°C° 0 mm 6 mps 766 mmHg 63%
    05:00 +13°C° 0 mm 6 mps 766 mmHg 64%
    06:00 +13°C° 0 mm 6 mps 767 mmHg 64%
    07:00 +13°C° 0 mm 6 mps 767 mmHg 64%
    08:00 +13°C° 0 mm 6 mps 767 mmHg 65%
    09:00 +15°C° 0 mm 6 mps 767 mmHg 59%
    10:00 +17°C° 0 mm 6 mps 767 mmHg 53%
    11:00 +20°C° 0 mm 6 mps 767 mmHg 47%
    12:00 +21°C° 0 mm 5 mps 766 mmHg 45%
    13:00 +22°C° 0 mm 5 mps 765 mmHg 42%
    14:00 +25°C° 0 mm 5 mps 765 mmHg 40%
    15:00 +23°C° 0 mm 5 mps 765 mmHg 41%
    16:00 +22°C° 0 mm 4 mps 765 mmHg 42%
    17:00 +22°C° 0 mm 4 mps 765 mmHg 44%
    18:00 +21°C° 0 mm 4 mps 765 mmHg 44%
    19:00 +20°C° 0 mm 5 mps 765 mmHg 44%
    20:00 +19°C° 0 mm 5 mps 765 mmHg 44%
    21:00 +19°C° 0 mm 6 mps 765 mmHg 44%
    22:00 +19°C° 0 mm 6 mps 765 mmHg 43%
    23:00 +19°C° 0 mm 6 mps 765 mmHg 43%

    28 May, Tuesday

    Time Temperature Precipitation Wind Pressure Humidity
    00:00 +17°C° 0 mm 5 mps 765 mmHg 44%
    01:00 +17°C° 0 mm 5 mps 765 mmHg 45%
    02:00 +17°C° 0 mm 5 mps 765 mmHg 46%
    03:00 +16°C° 0 mm 5 mps 765 mmHg 47%
    04:00 +16°C° 0 mm 5 mps 765 mmHg 49%
    05:00 +15°C° 0 mm 5 mps 765 mmHg 51%
    06:00 +15°C° 0 mm 5 mps 765 mmHg 51%
    07:00 +15°C° 0 mm 6 mps 765 mmHg 51%
    08:00 +15°C° 0 mm 6 mps 766 mmHg 51%
    09:00 +17°C° 0 mm 6 mps 766 mmHg 48%
    10:00 +20°C° 0 mm 5 mps 765 mmHg 45%
    11:00 +22°C° 0 mm 5 mps 765 mmHg 42%
    12:00 +23°C° 0 mm 5 mps 765 mmHg 42%
    13:00 +25°C° 0 mm 5 mps 764 mmHg 41%
    14:00 +26°C° 0 mm 5 mps 764 mmHg 41%
    15:00 +25°C° 0 mm 5 mps 764 mmHg 43%
    16:00 +23°C° 0 mm 4 mps 764 mmHg 45%
    17:00 +23°C° 0 mm 4 mps 764 mmHg 47%
    18:00 +22°C° 0 mm 4 mps 764 mmHg 49%
    19:00 +21°C° 0 mm 5 mps 765 mmHg 51%
    20:00 +20°C° 0 mm 5 mps 765 mmHg 53%
    21:00 +20°C° 0 mm 6 mps 765 mmHg 55%
    22:00 +19°C° 0 mm 6 mps 765 mmHg 56%
    23:00 +19°C° 0 mm 6 mps 765 mmHg 58%

    29 May, Wednesday

    Time Temperature Precipitation Wind Pressure Humidity
    00:00 +17°C° 0 mm 7 mps 765 mmHg 58%
    01:00 +17°C° 0 mm 7 mps 765 mmHg 59%
    02:00 +16°C° 0 mm 7 mps 765 mmHg 59%
    03:00 +16°C° 0 mm 7 mps 765 mmHg 59%
    04:00 +16°C° 0 mm 7 mps 765 mmHg 59%
    05:00 +15°C° 0 mm 7 mps 765 mmHg 59%
    06:00 +15°C° 0 mm 7 mps 765 mmHg 59%
    07:00 +15°C° 0 mm 7 mps 766 mmHg 59%
    08:00 +15°C° 0 mm 7 mps 766 mmHg 58%
    09:00 +17°C° 0 mm 7 mps 766 mmHg 53%
    10:00 +20°C° 0 mm 7 mps 766 mmHg 48%
    11:00 +21°C° 0 mm 7 mps 765 mmHg 43%
    12:00 +23°C° 0 mm 7 mps 765 mmHg 40%
    13:00 +24°C° 0 mm 6 mps 764 mmHg 38%
    14:00 +26°C° 0 mm 6 mps 763 mmHg 35%
    15:00 +26°C° 0 mm 5 mps 763 mmHg 36%
    16:00 +25°C° 0 mm 5 mps 763 mmHg 37%
    17:00 +25°C° 0 mm 4 mps 763 mmHg 38%
    18:00 +23°C° 0 mm 5 mps 764 mmHg 38%
    19:00 +23°C° 0 mm 5 mps 764 mmHg 38%
    20:00 +22°C° 0 mm 6 mps 764 mmHg 38%
    21:00 +22°C° 0 mm 6 mps 764 mmHg 39%
    22:00 +22°C° 0 mm 7 mps 764 mmHg 39%
    23:00 +21°C° 0 mm 7 mps 763 mmHg 39%
    Show more